User: anonymous   Login
Location: Unspecified
(0.0000°N, 0.0000°E)
Time: 12:21:52
(UTC+00:00)
Language:

LATINSAT B - Orbit

View from above orbital plane
View from above orbital plane
View from above satellite
View from above satellite

Ground track
Ground track

The orbit data is extracted from the following two-line orbital elements,

1 27606U 02058B   17293.87301842 +.00000020 +00000-0 +24708-4 0  9998
2 27606 064.5557 162.4689 0043597 051.4562 309.0433 14.72096653796357
Epoch (UTC): 20 October 2017 20:57:08
Eccentricity: 0.0043597
inclination: 64.5557°
perigee height: 624 km
apogee height: 685 km
right ascension of ascending node: 162.4689°
argument of perigee: 51.4562°
revolutions per day: 14.72096653
mean anomaly at epoch: 309.0433°
orbit number at epoch: 79635

The dashed part of the orbit path shows where the satellite is in the earth's shadow,  

DLR